"TOA5","AWS1","CR1000","7964","CR1000.Std.14","CPU:AWS1_114.CR1","64363","TBL110"
"TIMESTAMP","RECORD","Wind_spd_WVc(1)","Wind_spd_WVc(2)","Air_Temp_Avg","Humidity_Avg","SW_upper_Wm2_Avg","Rain_Tot","Press_Avg","Issui_Tot","Depth_cm","SR50A_Raw","Quality","Ground_Temp_Avg(1)","Ground_Temp_Avg(2)","SW_lower_Wm2_Avg","Albedo_Avg","SWC_per(1)","SWC_per(2)","Period(1)","Period(2)"
"TS","RN","","","","","","","","","","","","","","","","","","",""
"","","WVc","WVc","Avg","Avg","Avg","Tot","Avg","Tot","Smp","Smp","Smp","Avg","Avg","Avg","Avg","Smp","Smp","Smp","Smp"
"2015-12-22 00:00:00",214621,0.461,248.3,-0.075,96,0,0,870.0352,0,-0.809,3.189,202,2.805,3.791,0,0,51.99,59.67,33.79,35.6
"2015-12-22 00:10:00",214622,0.516,200.3,-0.209,99.4,0,0,870.0267,0,-1.008,3.191,203,2.819,3.791,0,0,51.99,59.67,33.79,35.6
"2015-12-22 00:20:00",214623,0.669,209.4,-0.148,97.7,0,0,869.9213,0,-0.809,3.188,217,2.818,3.791,0,0,51.99,59.67,33.79,35.6
"2015-12-22 00:30:00",214624,0.55,178,-0.135,95.7,0,0,869.8203,0,-0.859,3.19,205,2.821,3.793,0,0,51.99,59.73,33.79,35.62
"2015-12-22 00:40:00",214625,0.548,161.4,-0.163,96.3,0,0,869.7043,0,-0.909,3.19,212,2.819,3.792,0,0,51.99,59.67,33.79,35.6
"2015-12-22 00:50:00",214626,0.566,171.7,-0.191,96,0,0,869.5885,0,-1.109,3.192,201,2.833,3.794,0.04928087,0,52.05,59.67,33.8,35.6
"2015-12-22 01:00:00",214627,0.488,200.1,-0.165,94.2,0,0,869.7233,0,-1.208,3.193,210,2.836,3.791,0.2274502,0,51.99,59.67,33.79,35.6
"2015-12-22 01:10:00",214628,0.5,238.6,-0.277,96.5,0,0,869.6664,0,-1.083,3.193,196,2.831,3.801,0.2236593,0,51.99,59.67,33.79,35.6
"2015-12-22 01:20:00",214629,0.453,250,-0.243,93,0,0,869.7444,0,-1.108,3.192,217,2.821,3.811,0.3108486,0,51.99,59.67,33.79,35.6
"2015-12-22 01:30:00",214630,0.462,217.2,-0.395,94,0,0,869.7739,0,-1.357,3.196,191,2.804,3.824,0.1250976,0,51.99,59.67,33.79,35.6
"2015-12-22 01:40:00",214631,0.313,253.2,-0.414,91.3,0,0,869.7444,0,-1.181,3.195,219,2.765,3.833,0.3449661,0,51.99,59.73,33.79,35.62
"2015-12-22 01:50:00",214632,0.178,220.9,-0.589,92.7,0,0,869.7697,0,-2.13,3.205,190,2.768,3.833,0.2729402,0,51.99,59.73,33.79,35.62
"2015-12-22 02:00:00",214633,0.461,267.3,-0.544,88.1,0,0,869.7255,0,-1.681,3.2,201,2.754,3.833,0.7619581,0,51.99,59.73,33.79,35.62
"2015-12-22 02:10:00",214634,0.662,292.6,-0.545,85.9,0,0,869.7634,0,-2.803,3.212,184,2.761,3.826,0.7316314,0,52.05,59.73,33.8,35.62
"2015-12-22 02:20:00",214635,0.606,337.1,-0.827,88.4,0,0,869.6769,0,-2.5,3.211,193,2.753,3.813,0.3222211,0,51.99,59.73,33.79,35.62
"2015-12-22 02:30:00",214636,0.146,336.6,-0.835,87.9,0,0,869.7739,0,-0.928,3.195,196,2.753,3.796,0.625488,0,51.99,59.73,33.79,35.62
"2015-12-22 02:40:00",214637,0.856,297,-0.756,86,0,0,869.8876,0.5,-2.204,3.206,184,2.753,3.781,0.9894083,0,52.05,59.73,33.8,35.62
"2015-12-22 02:50:00",214638,1.07,309.1,-0.66,84.5,0,0,870.0267,0,-2.529,3.209,193,2.753,3.782,0.8036573,0,51.99,59.73,33.79,35.62
"2015-12-22 03:00:00",214639,0.45,329.1,-0.68,85.6,0,0,870.0267,0,-2.828,3.212,194,2.753,3.79,0.6520239,0,51.99,59.73,33.79,35.62
"2015-12-22 03:10:00",214640,0.391,344.4,-0.755,87,0,0,870.0267,0,-2.155,3.205,189,2.753,3.764,0.5837888,0,51.99,59.79,33.79,35.63
"2015-12-22 03:20:00",214641,0.753,315.5,-0.623,84.7,0,0,870.0267,0,-2.13,3.205,195,2.753,3.768,0.6633964,0,52.05,59.79,33.8,35.63
"2015-12-22 03:30:00",214642,0.787,312.7,-0.642,85.4,0,0,870.0246,0,-1.655,3.2,195,2.753,3.771,0.4283645,0,51.99,59.79,33.79,35.63
"2015-12-22 03:40:00",214643,0.942,304.4,-0.586,85,0,0,870.0225,0,-2.03,3.204,194,2.753,3.762,0.462482,0,51.99,59.79,33.79,35.63
"2015-12-22 03:50:00",214644,0.989,298.1,-0.671,86.2,0,0,870.0478,0,-1.979,3.204,190,2.753,3.764,0.231241,0,52.05,59.79,33.8,35.63
"2015-12-22 04:00:00",214645,0.467,312,-0.695,87.4,0,0,870.0604,0,-1.954,3.204,189,2.753,3.757,0.2577769,0,52.05,59.79,33.8,35.63
"2015-12-22 04:10:00",214646,0.205,279,-0.787,88.5,0,0,870.0267,0,-1.703,3.202,200,2.753,3.758,0.2274502,0,51.99,59.79,33.79,35.63
"2015-12-22 04:20:00",214647,0.395,244.2,-0.878,89.9,0,0,870.0414,0,-1.977,3.205,194,2.753,3.771,0.2274502,0,51.99,59.79,33.79,35.63
"2015-12-22 04:30:00",214648,0.26,164.6,-1.003,93.8,0,0,870.071,0,-1.727,3.203,196,2.753,3.767,0.2009143,0,51.99,59.79,33.79,35.63
"2015-12-22 04:40:00",214649,0.295,227.2,-1.03,91.7,0,0,870.1784,0,-1.601,3.202,206,2.754,3.771,0.1819602,0,51.99,59.85,33.79,35.64
"2015-12-22 04:50:00",214650,0.32,235.3,-1.02,91,0,0,870.2205,0,-1.901,3.205,191,2.753,3.786,0.5117629,0,51.99,59.85,33.79,35.64
"2015-12-22 05:00:00",214651,0.47,252.2,-1.062,91.8,0,0,870.2205,0,-1.576,3.202,204,2.754,3.784,0.3070577,0,51.99,59.85,33.79,35.64
"2015-12-22 05:10:00",214652,0.819,270.2,-1.162,92.7,0,0,870.3301,0,-1.127,3.198,194,2.754,3.788,0.3639203,0,51.99,59.85,33.79,35.64
"2015-12-22 05:20:00",214653,0.341,272.3,-1.081,92.6,0,0,870.5345,0,-1.851,3.205,194,2.753,3.79,0.5231354,0,51.99,59.85,33.79,35.64
"2015-12-22 05:30:00",214654,0.685,204.6,-1.102,92.8,0,0,870.5408,0,-1.551,3.202,200,2.753,3.789,0.6103247,0,51.99,59.85,33.79,35.64
"2015-12-22 05:40:00",214655,0.511,201.9,-1.113,93.8,0,0,870.6146,0,-1.5,3.202,195,2.754,3.788,0.3677111,0,52.05,59.85,33.8,35.64
"2015-12-22 05:50:00",214656,0.633,216.1,-1.168,94.8,0,0,870.7537,0,-1.9,3.206,188,2.755,3.788,0.253986,0,52.05,59.85,33.8,35.64
"2015-12-22 06:00:00",214657,0.691,240,-1.172,93.3,0,0,870.8126,0,-1.401,3.201,200,2.763,3.788,0.2881036,0,51.99,59.85,33.79,35.64
"2015-12-22 06:10:00",214658,1.008,281.5,-1.076,89.8,0,0,870.9643,0,-0.928,3.195,211,2.758,3.787,0.5041813,0,51.99,59.91,33.79,35.66
"2015-12-22 06:20:00",214659,0.85,280,-0.9,83.8,0,0,871.0381,0,-1.478,3.2,200,2.763,3.783,0.6406513,0,51.99,59.91,33.79,35.66
"2015-12-22 06:30:00",214660,0.486,255.3,-0.842,83.4,0,0,871.2024,0,-1.402,3.2,198,2.76,3.78,0.5762071,0,51.99,59.91,33.79,35.66
"2015-12-22 06:40:00",214661,0.528,256.1,-1.014,87.8,0,0,871.3162,0,-0.828,3.194,205,2.774,3.74,0.4700637,0,51.99,59.91,33.79,35.66
"2015-12-22 06:50:00",214662,0.404,228.9,-1.045,87.8,0,0,871.3267,0,-1.054,3.197,198,2.767,3.759,0.8302016,0,51.99,59.91,33.79,35.66
"2015-12-22 07:00:00",214663,0.457,279.8,-0.993,85.2,0,0,871.5374,0,-0.96,3.194,204,2.772,3.74,2.016767,0,51.99,59.91,33.79,35.66
"2015-12-22 07:10:00",214664,0.241,74.18,-1.05,86.5,0.4167687,0,871.6153,0,-1.056,3.198,196,2.787,3.726,4.374796,1.991,52.05,59.91,33.8,35.66
"2015-12-22 07:20:00",214665,0.51,288.2,-1.03,84.8,3.314472,0,871.7839,0,-1.033,3.196,200,2.775,3.751,7.441661,2.378,51.99,59.91,33.79,35.66
"2015-12-22 07:30:00",214666,0.518,213.5,-1.074,86.3,7.973512,0,871.8303,0,-0.53,3.192,210,2.764,3.764,12.04375,1.531,52.05,59.91,33.8,35.66
"2015-12-22 07:40:00",214667,0.638,215.9,-1.023,86.1,14.49997,0,872.0431,0,-0.68,3.192,210,2.757,3.782,18.42364,1.275,51.99,59.91,33.79,35.66
"2015-12-22 07:50:00",214668,0.682,290.5,-0.87,83.2,13.30074,0,872.22
"2015-12-22 07:50:00",214668,0.682,290.5,-0.87,83.2,13.30074,0,872.22,0,-0.605,3.191,207,2.754,3.781,16.50915,1.245,51.99,59.91,33.79,35.66
"2015-12-22 08:00:00",214669,0.844,302,-0.654,77.6,21.54534,0,872.2874,0,-0.956,3.193,201,2.753,3.766,25.45929,1.186,51.99,59.91,33.79,35.66
"2015-12-22 08:10:00",214670,0.367,264.9,-0.617,79.18,28.07206,0,872.14,0,-0.908,3.193,201,2.755,3.773,31.79403,1.133,52.05,59.91,33.8,35.66
"2015-12-22 08:20:00",214671,0.548,262.6,-0.655,82.1,30.47832,0,872.0536,0,-0.758,3.19,199,2.756,3.784,43.43969,1.395,51.99,59.97,33.79,35.67
"2015-12-22 08:30:00",214672,0.242,292.8,-0.286,77.79,50.25039,0,872.0494,0,-0.859,3.189,216,2.754,3.769,60.6651,1.3,51.99,59.91,33.79,35.66
"2015-12-22 08:40:00",214673,0.415,257.3,-0.131,79.76,38.09754,0,872.1484,0,-0.583,3.187,194,2.753,3.749,63.82265,1.667,52.05,59.91,33.8,35.66
"2015-12-22 08:50:00",214674,0.742,288.4,-0.211,78.82,40.21665,0,872.2833,0,-0.559,3.187,201,2.76,3.748,72.11694,1.795,51.99,59.97,33.79,35.67
"2015-12-22 09:00:00",214675,0.624,254.4,-0.015,78.29,52.99836,0,872.2896,0,-0.459,3.185,193,2.799,3.749,83.98603,1.657,51.99,59.97,33.79,35.67
"2015-12-22 09:10:00",214676,0.643,285.2,-0.042,77.5,57.64555,0,872.3781,0,-0.559,3.186,193,2.8,3.78,64.68687,1.134,51.99,59.97,33.79,35.67
"2015-12-22 09:20:00",214677,1.106,287,-0.097,78.18,62.56008,0,872.5487,0,-0.559,3.186,183,2.793,3.805,68.35262,1.1,51.99,59.97,33.79,35.67
"2015-12-22 09:30:00",214678,0.526,201.1,0.131,80.3,56.44247,0,872.534,0,-0.386,3.182,183,2.789,3.801,71.89326,1.273,51.99,59.97,33.79,35.67
"2015-12-22 09:40:00",214679,0.516,183.4,0.347,79.83,50.65904,0,872.3486,0,-0.337,3.179,189,2.761,3.791,71.64685,1.442,51.99,59.97,33.79,35.67
"2015-12-22 09:50:00",214680,0.903,191.2,0.655,78.2,94.01311,0,872.456,0,-0.863,3.184,188,2.781,3.791,87.01491,1.073,51.99,59.97,33.79,35.67
"2015-12-22 10:00:00",214681,0.928,182.5,0.591,74.91,33.56039,0,872.4118,0,0.038,3.176,198,2.821,3.79,76.95023,2.266,51.99,59.97,33.79,35.67
"2015-12-22 10:10:00",214682,1.133,224.8,0.619,72.72,34.80278,0,872.2621,0,0.014,3.176,193,2.821,3.79,86.52968,2.504,51.94,59.97,33.77,35.67
"2015-12-22 10:20:00",214683,0.742,214.1,0.869,70.42,73.91069,0,872.0768,0,-0.662,3.183,192,2.836,3.789,90.43424,1.268,51.99,59.97,33.79,35.67
"2015-12-22 10:30:00",214684,0.826,317.6,0.759,65.28,103.1581,0,872.0483,0,-0.562,3.181,179,2.838,3.787,99.99854,1.057,51.99,59.97,33.79,35.67
"2015-12-22 10:40:00",214685,0.584,289.8,1.028,67.36,76.54096,0,872.0475,0,-0.688,3.181,184,2.834,3.773,112.0837,1.711,51.99,59.97,33.79,35.67
"2015-12-22 10:50:00",214686,0.584,254.6,0.949,66.88,114.1731,0,872.1227,0,-1.26,3.185,183,2.799,3.755,132.7116,1.507,52.05,59.97,33.8,35.67
"2015-12-22 11:00:00",214687,0.971,253.7,1.186,65.44,94.20094,0,871.958,0,-0.799,3.181,187,2.754,3.764,155.7833,2.325,51.99,59.97,33.79,35.67
"2015-12-22 11:10:00",214688,0.952,289.1,1.245,62.81,129.5027,0,871.7537,0,-0.689,3.181,188,2.744,3.759,177.1965,1.855,51.99,59.97,33.79,35.67
"2015-12-22 11:20:00",214689,0.699,276.9,1.265,61.3,220.5098,0,871.7269,0,-0.976,3.182,183,2.755,3.737,192.3287,0.89,51.99,59.97,33.79,35.67
"2015-12-22 11:30:00",214690,0.968,283.5,1.355,61.03,352.0282,0,871.694,0,-1.368,3.184,188,2.764,3.715,195.4063,0.629,51.99,59.97,33.79,35.67
"2015-12-22 11:40:00",214691,1.308,278.4,1.289,60.71,492.7838,0,871.632,0,-0.363,3.176,183,2.755,3.706,191.3828,0.39,51.99,59.97,33.79,35.67
"2015-12-22 11:50:00",214692,0.854,220.4,1.843,63.37,391.8239,0,871.4549,0,-0.937,3.18,179,2.752,3.705,192.0435,0.546,51.99,59.97,33.79,35.67
"2015-12-22 12:00:00",214693,1.207,333.2,1.335,62.16,252.5012,0,871.4506,0,-0.744,3.178,192,2.747,3.74,212.6845,0.909,51.99,60.03,33.79,35.69
"2015-12-22 12:10:00",214694,1.125,321.6,1.645,60.33,423.7215,0,871.4069,0,-0.723,3.18,184,2.747,3.761,175.4625,0.493,51.99,59.97,33.79,35.67
"2015-12-22 12:20:00",214695,0.874,310.6,1.614,59.39,580.6527,0,871.2128,0,-0.865,3.177,184,2.741,3.744,162.142,0.286,51.99,59.97,33.79,35.67
"2015-12-22 12:30:00",214696,0.775,322.3,1.95,57.77,537.8821,0,871.3102,0,-0.611,3.176,179,2.754,3.727,152.4646,0.288,51.99,60.03,33.79,35.69
"2015-12-22 12:40:00",214697,1.075,290.2,1.421,59.18,271.4208,0,871.3582,0,-0.661,3.177,171,2.751,3.731,102.431,0.415,51.99,60.03,33.79,35.69
"2015-12-22 12:50:00",214698,0.571,312.5,1.702,63.34,331.4306,0,871.3575,0,-0.911,3.179,184,2.76,3.727,120.243,0.379,51.94,59.97,33.77,35.67
"2015-12-22 13:00:00",214699,0.62,268.1,1.286,68.03,239.2061,0,871.3574,0,-0.811,3.183,179,2.754,3.721,106.6393,0.464,51.94,60.03,33.77,35.69
"2015-12-22 13:10:00",214700,0.431,261.8,0.682,72.31,141.2282,0,871.3553,0,-0.508,3.181,189,2.741,3.73,78.44997,0.552,51.99,60.03,33.79,35.69
"2015-12-22 13:20:00",214701,0.561,273.3,0.673,73.6,132.3437,0,871.3489,0,-0.657,3.183,176,2.758,3.719,70.33873,0.53,51.99,59.97,33.79,35.67
"2015-12-22 13:30:00",214702,0.593,250.2,0.591,73.89,104.9367,0,871.3574,0,-0.759,3.184,177,2.685,3.667,57.49727,0.548,51.99,60.03,33.79,35.69
"2015-12-22 13:40:00",214703,0.574,12.45,0.571,73.74,104.2579,0,871.3279,0,-0.659,3.183,177,2.66,3.624,57.97127,0.556,51.99,60.03,33.79,35.69
"2015-12-22 13:50:00",214704,0.919,318.5,0.615,71.36,143.3355,0,871.21,0,-0.685,3.183,177,2.661,3.612,77.64761,0.543,51.99,59.97,33.79,35.67
"2015-12-22 14:00:00",214705,1.473,298.4,0.515,69.61,107.0283,0,871.0768,0,-0.659,3.184,177,2.661,3.612,56.97145,0.533,51.99,59.97,33.79,35.67
"2015-12-22 14:10:00",214706,0.65,242.3,0.482,71.95,98.84846,0,870.9306,0,-0.562,3.182,178,2.662,3.62,54.15312,0.548,52.05,59.97,33.8,35.67
"2015-12-22 14:20:00",214707,0.278,28.38,0.71,70.86,104.6345,0,871.2506,0,-0.779,3.183,172,2.678,3.645,57.06226,0.545,51.99,59.97,33.79,35.67
"2015-12-22 14:30:00",214708,0.505,324.8,0.657,69.56,99.83004,0,871.3484,0,-0.797,3.184,177,2.712,3.693,53.39426,0.535,51.99,59.97,33.79,35.67
"2015-12-22 14:40:00",214709,0.411,324.6,0.733,71.43,129.488,0,871.2492,0,-0.656,3.183,177,2.736,3.741,66.57482,0.515,51.94,59.97,33.77,35.67
"2015-12-22 14:50:00",214710,0.553,306.9,0.671,72.9,123.3418,0,871.3913,0,-0.685,3.182,177,2.746,3.744,63.0151,0.512,51.99,60.03,33.79,35.69
"2015-12-22 15:00:00",214711,0.802,311.8,0.721,71.88,99.74222,0,871.3474,0,-0.81,3.185,174,2.75,3.746,52.73499,0.529,51.94,59.97,33.77,35.67
"2015-12-22 15:10:00",214712,0.129,6.046,0.711,72.02,94.92801,0,871.4442,0,-0.862,3.184,183,2.754,3.716,50.02946,0.527,51.99,60.03,33.79,35.69
"2015-12-22 15:20:00",214713,0.509,347.7,0.752,70.94,75.48108,0,871.4189,0,-0.811,3.185,177,2.753,3.712,39.89628,0.53,51.99,59.97,33.79,35.67
"2015-12-22 15:30:00",214714,0.189,250.2,0.462,74,35.7813,0,871.2252,0,-0.86,3.186,177,2.77,3.701,20.6151,0.601,51.99,59.97,33.79,35.67
"2015-12-22 15:40:00",214715,0.245,280,0.207,75.59,14.67568,0,870.8903,0,-0.884,3.188,182,2.754,3.701,11.17914,0.764,51.94,60.03,33.77,35.69
"2015-12-22 15:50:00",214716,0.11,244.3,0.031,76.41,13.7835,0,871.0356,0,-0.858,3.189,
"2015-12-22 15:50:00",214716,0.11,244.3,0.031,76.41,13.7835,0,871.0356,0,-0.858,3.189,178,2.749,3.677,10.87977,0.789,51.94,60.03,33.77,35.69
"2015-12-22 16:00:00",214717,0.039,198,-0.093,77.75,14.44379,0,871.2104,0,-0.608,3.187,178,2.75,3.65,11.06167,0.769,51.99,60.03,33.79,35.69
"2015-12-22 16:10:00",214718,0.178,257.7,-0.08,80.5,14.54991,0,871.3705,0,-0.958,3.19,182,2.741,3.656,10.56903,0.731,51.94,60.03,33.77,35.69
"2015-12-22 16:20:00",214719,0.168,217.9,-0.269,82.3,12.10533,0,871.4337,0,-0.786,3.19,181,2.744,3.664,8.818307,0.74,51.99,59.97,33.79,35.67
"2015-12-22 16:30:00",214720,0.148,256.1,-0.408,83.1,4.20174,0,871.5095,0,-0.871,3.192,179,2.744,3.707,5.029069,1.346,51.94,59.97,33.77,35.67
"2015-12-22 16:40:00",214721,0.053,306.1,-0.668,84.6,0.1926058,0,871.3994,0,-0.876,3.193,175,2.753,3.733,2.429409,1.24,51.94,59.97,33.77,35.67
"2015-12-22 16:50:00",214722,0.169,341.3,-1.004,85.3,0,0,871.4656,0,-0.78,3.195,176,2.783,3.707,0.701176,0,51.94,59.97,33.77,35.67
"2015-12-22 17:00:00",214723,0.034,22.18,-1.364,85.7,0,0,871.5086,0,-0.889,3.198,173,2.811,3.69,0.06822576,0,51.94,60.03,33.77,35.69
"2015-12-22 17:10:00",214724,0,0,-1.522,86.7,0,0,871.5304,0,-0.696,3.196,193,2.816,3.733,0,0,51.94,60.03,33.77,35.69
"2015-12-22 17:20:00",214725,0,0,-1.556,87,0,0,871.541,0,-0.921,3.199,187,2.77,3.743,0.0416988,0,51.94,59.97,33.77,35.67
"2015-12-22 17:30:00",214726,0,0,-1.818,88.7,0,0,871.5325,0,-0.993,3.202,192,2.752,3.751,0.09477062,0,51.94,59.97,33.77,35.67
"2015-12-22 17:40:00",214727,0.122,166.7,-2.057,91.2,0,0,871.5499,0,-0.893,3.201,176,2.754,3.773,0.2350316,0,51.94,60.03,33.77,35.69
"2015-12-22 17:50:00",214728,0,0,-2.116,91.6,0,0,871.5437,0,-0.843,3.201,180,2.756,3.784,0,0,51.94,60.03,33.77,35.69
"2015-12-22 18:00:00",214729,0.108,169,-2.271,92.3,0,0,871.5437,0,-0.665,3.201,181,2.774,3.77,0,0,51.94,59.97,33.77,35.67
"2015-12-22 18:10:00",214730,0.001,168.9,-2.363,93.1,0,0,871.5437,0,-0.94,3.203,192,2.788,3.723,0,0,51.94,60.03,33.77,35.69
"2015-12-22 18:20:00",214731,0.022,170.5,-2.291,92.6,0,0,871.5521,0,-0.989,3.204,176,2.797,3.71,0.09477091,0,51.94,60.03,33.77,35.69
"2015-12-22 18:30:00",214732,0.12,170.9,-2.689,93.5,0,0,871.6617,0,-0.811,3.204,170,2.813,3.706,0.253986,0,51.94,59.97,33.77,35.67
"2015-12-22 18:40:00",214733,0.047,182,-2.656,93.7,0,0,871.5605,0,-0.938,3.205,180,2.801,3.706,0.7467992,0,51.94,60.03,33.77,35.69
"2015-12-22 18:50:00",214734,0.105,181.9,-2.939,94.2,0,0,871.544,0,-0.808,3.206,177,2.776,3.707,0.7051044,0,51.94,59.97,33.77,35.67
"2015-12-22 19:00:00",214735,0.289,200.3,-2.901,95.7,0,0,871.5522,0,-0.772,3.204,175,2.774,3.715,1.019773,0,51.88,60.03,33.76,35.69
"2015-12-22 19:10:00",214736,0.142,203.6,-2.746,95.2,0,0,871.5845,0,-1.104,3.208,184,2.792,3.741,1.137383,0,51.94,59.97,33.77,35.67
"2015-12-22 19:20:00",214737,0.136,200.1,-3.077,95.7,0,0,871.7128,0,-0.81,3.206,178,2.8,3.75,0.9061725,0,51.88,60.03,33.76,35.69
"2015-12-22 19:30:00",214738,0.021,199.3,-2.919,96.1,0,0,871.8514,0,-0.943,3.207,172,2.836,3.738,1.638014,0,51.94,60.03,33.77,35.69
"2015-12-22 19:40:00",214739,0.142,199.3,-3.161,96.1,0,0,871.8746,0,-0.748,3.206,185,2.857,3.739,1.28544,0,51.94,60.03,33.77,35.69
"2015-12-22 19:50:00",214740,0.285,199,-3.129,96.7,0,0,871.8859,0,-0.777,3.207,174,2.872,3.759,1.5661,0,51.88,60.03,33.76,35.69
"2015-12-22 20:00:00",214741,0.245,197.6,-3.217,96.7,0,0,871.889,0,-0.778,3.207,192,2.881,3.734,1.573717,0,51.94,60.03,33.77,35.69
"2015-12-22 20:10:00",214742,0.134,196.5,-3.339,96.9,0,0,872.1027,0,-0.977,3.209,187,2.88,3.74,1.308281,0,51.94,60.03,33.77,35.69
"2015-12-22 20:20:00",214743,0.188,206.7,-3.457,96.6,0,0,871.9131,0,-0.728,3.207,188,2.858,3.745,1.429632,0,51.94,60.03,33.77,35.69
"2015-12-22 20:30:00",214744,0.221,189,-3.211,97.4,0,0,872.1365,0,-1.003,3.209,170,2.861,3.749,1.748172,0,51.88,60.03,33.76,35.69
"2015-12-22 20:40:00",214745,0.229,186.6,-3.25,95.8,0,0,871
"2015-12-22 20:40:00",214745,0.229,186.6,-3.25,95.8,0,0,871.9258,0,-0.924,3.21,183,2.883,3.75,1.588903,0,51.94,60.03,33.77,35.69
"2015-12-22 20:50:00",214746,0.217,186.4,-3.357,97.1,0,0,872.0501,0,-0.805,3.207,170,2.878,3.752,1.835391,0,51.94,59.97,33.77,35.67
"2015-12-22 21:00:00",214747,0.244,187.2,-3.237,96.8,0,0,872.1513,0,-1.101,3.211,188,2.868,3.756,2.017413,0,51.94,60.03,33.77,35.69
"2015-12-22 21:10:00",214748,0.155,187.2,-3.498,96.1,0,0,872.1428,0,-0.899,3.21,170,2.829,3.763,1.61924,0,51.94,60.03,33.77,35.69
"2015-12-22 21:20:00",214749,0.003,163.4,-3.392,96.7,0,0,872.0691,0,-1.026,3.21,189,2.84,3.784,2.419379,0,51.94,60.03,33.77,35.69
"2015-12-22 21:30:00",214750,0.117,187.9,-3.405,96.3,0,0,871.9658,0,-0.703,3.207,174,2.84,3.776,2.119801,0,51.88,59.97,33.76,35.67
"2015-12-22 21:40:00",214751,0.003,210.9,-3.138,95.6,0,0,872.0901,0,-1.008,3.207,175,2.837,3.78,2.483845,0,51.88,60.03,33.76,35.69
"2015-12-22 21:50:00",214752,0.003,261.9,-3.039,93.4,0,0,872.126,0,-1.1,3.211,187,2.83,3.782,2.464885,0,51.94,60.03,33.77,35.69
"2015-12-22 22:00:00",214753,0,0,-3.606,93.8,0,0,872.2125,0,-0.893,3.212,174,2.777,3.788,2.157722,0,51.88,59.97,33.76,35.67
"2015-12-22 22:10:00",214754,0.201,219.4,-3.706,96.1,0,0,872.1976,0,-0.878,3.208,176,2.762,3.791,2.104632,0,51.94,59.97,33.77,35.67
"2015-12-22 22:20:00",214755,0.068,228.4,-2.985,93.3,0,0,872.1766,0,-0.911,3.205,171,2.757,3.791,2.639323,0,51.88,59.97,33.76,35.67
"2015-12-22 22:30:00",214756,0.153,295.3,-2.645,87.4,0,0,872.2756,0,-0.862,3.204,171,2.758,3.792,2.377666,0,51.88,59.97,33.76,35.67
"2015-12-22 22:40:00",214757,0.248,302.8,-2.541,89.2,0,0,872.3726,0,-1.406,3.211,170,2.758,3.784,2.138761,0,51.94,59.97,33.77,35.67
"2015-12-22 22:50:00",214758,0.003,295.7,-3.293,90.7,0,0,872.3958,0,-0.705,3.206,178,2.704,3.784,1.368959,0,51.94,59.97,33.77,35.67
"2015-12-22 23:00:00",214759,0.162,182,-3.268,90.9,0,0,872.1913,0,-0.828,3.208,184,2.696,3.791,1.873312,0,51.88,59.97,33.76,35.67
"2015-12-22 23:10:00",214760,0.247,162,-2.307,86.3,0,0,872.0143,0,-0.825,3.197,180,2.703,3.791,2.267694,0,51.88,59.97,33.76,35.67
"2015-12-22 23:20:00",214761,0.158,129.4,-0.936,79.78,0,0,871.7171,0,-0.384,3.187,184,2.689,3.767,2.525559,0,51.88,59.97,33.76,35.67
"2015-12-22 23:30:00",214762,0.179,358.7,-0.298,77.38,0,0,871.7023,0,-0.835,3.189,188,2.689,3.75,2.529351,0,51.88,59.97,33.76,35.67
"2015-12-22 23:40:00",214763,0.145,334.2,0.012,74.21,0,0,871.7045,0,-0.935,3.19,170,2.672,3.75,1.880897,0,51.88,59.97,33.76,35.67
"2015-12-22 23:50:00",214764,0.165,191.4,-1.095,80.9,0,0,872.0797,0,-0.848,3.198,192,2.675,3.746,1.020083,0,51.88,59.97,33.76,35.67
